Hurghada, Egypt

11:51 PM EET on February 20, 2018 (GMT +0200)
Hurghada

Weather History for HEGN - March, 2014

Change the Weather History Date:

Wednesday, March 26, 2014

  Actual Average Record
Temperature  
Mean Temperature 77 °F -  
Max Temperature 90 °F 80 °F 95 °F (2016)
Min Temperature 64 °F 63 °F 51 °F (2003)
Cooling Degree Days 12    
Growing Degree Days 27 (Base 50)    
Moisture  
Dew Point 43 °F    
Average Humidity 31    
Maximum Humidity 60    
Minimum Humidity 8    
Precipitation  
Precipitation 0.00 in - - ()
Sea Level Pressure  
Sea Level Pressure 29.99 in    
Wind  
Wind Speed 12 mph ()    
Max Wind Speed 21 mph    
Max Gust Speed -    
Visibility 6.0 miles    
Events      
Averages and records for this station are not official NWS values.
T = Trace of Precipitation, MM = Missing Value Source: Averaged Metar Reports

Daily Weather History Graph

Daily Weather History Graph

Search for Another Location

Airport or City:

Trip Planner

Search our weather history database for the weather conditions in past years. The results will help you decide how hot, cold, wet, or windy it might be!

Date:

Astronomy

Mar. 26, 2014 Rise Set
Actual Time 5:42 AM EET 5:59 PM EET
Civil Twilight 5:19 AM EET 6:22 PM EET
Nautical Twilight 4:52 AM EET 6:49 PM EET
Astronomical Twilight 4:24 AM EET 7:17 PM EET
Moon 2:11 AM EET (3/26) 1:37 PM EET (3/26)
Length of Visible Light 13h 03m
Length of Day
12h 16m
Waning Crescent, 24% of the Moon is Illuminated
Mar 26
Waning Crescent
Mar 30
New
Apr 7
First Quarter
Apr 15
Full
Apr 22
Last Quarter

Hourly Weather History & Observations

Time (EET) Temp. Dew Point Humidity Pressure Visibility Wind Dir Wind Speed Gust Speed Precip Events Conditions
12:00 AM 69.8 °F 39.2 °F 33% 29.95 in - WNW 11.5 mph - N/A   Clear
1:00 AM 69.8 °F 39.2 °F 33% 29.95 in - NW 16.1 mph - N/A   Clear
2:00 AM 69 °F 40 °F 23% 29.96 in 6 mi NW 20.7 mph - -  
2:00 AM 68.0 °F 39.2 °F 35% 29.95 in - NW 18.4 mph - N/A   Clear
3:00 AM 68.0 °F 41.0 °F 37% 29.95 in - NW 15.0 mph - N/A   Clear
4:00 AM 66.2 °F 42.8 °F 43% 29.95 in - WNW 15.0 mph - N/A   Clear
5:00 AM 66 °F 43 °F 32% 29.97 in 6 mi NW 15.0 mph - -  
5:00 AM 66.2 °F 42.8 °F 43% 29.95 in - NW 15.0 mph - N/A   Clear
6:00 AM 66.2 °F 42.8 °F 43% 29.98 in - NW 13.8 mph - N/A   Clear
7:00 AM 68.0 °F 42.8 °F 40% 30.01 in - NW 15.0 mph - N/A   Clear
8:00 AM 71 °F 44 °F 27% 30.03 in 6 mi NW 13.8 mph - -  
8:00 AM 71.6 °F 44.6 °F 38% 30.01 in - NW 13.8 mph - N/A   Clear
9:00 AM 77.0 °F 41.0 °F 28% 30.04 in - NNW 17.3 mph - N/A   Clear
10:00 AM 78.8 °F 44.6 °F 30% 30.04 in - North 18.4 mph - N/A   Clear
11:00 AM 80 °F 42 °F 16% 30.04 in 6 mi North 17.3 mph - -  
11:00 AM 80.6 °F 41.0 °F 24% 30.04 in - North 17.3 mph - N/A   Clear
12:00 PM 82.4 °F 42.8 °F 25% 30.01 in - North 12.7 mph - N/A   Clear
1:00 PM 86.0 °F 41.0 °F 20% 29.98 in - NNE 8.1 mph - N/A   Clear
2:00 PM 87 °F 40 °F 11% 29.99 in 6 mi North 11.5 mph - -  
2:00 PM 87.8 °F 39.2 °F 18% 29.98 in - North 11.5 mph - N/A   Clear
3:00 PM 89.6 °F 46.4 °F 22% 29.95 in - North 6.9 mph - N/A   Clear
4:00 PM 86.0 °F 46.4 °F 25% 29.95 in - North 9.2 mph - N/A   Clear
5:00 PM 83 °F 50 °F 21% 29.98 in 6 mi North 10.4 mph - -  
5:00 PM 82.4 °F 50.0 °F 32% 29.98 in - North 10.4 mph - N/A   Clear
6:00 PM 77.0 °F 55.4 °F 47% 29.98 in - North 8.1 mph - N/A   Clear
7:00 PM - - N/A% 29.98 in - North - - N/A   Clear
8:00 PM 72 °F 57 °F 50% 30.00 in 6 mi North 5.8 mph - -  
8:00 PM 71.6 °F 57.2 °F 60% 29.98 in - North 5.8 mph - N/A   Clear
9:00 PM 71.6 °F 46.4 °F 41% 30.01 in - NNW 6.9 mph - N/A   Clear
10:00 PM 69.8 °F 37.4 °F 31% 29.98 in - WNW 9.2 mph - N/A   Clear
11:00 PM 72 °F 24 °F 8% 29.99 in 6 mi WNW 9.2 mph - -  
11:00 PM 71.6 °F 24.8 °F 17% 29.98 in - WNW 9.2 mph - N/A   Clear